Litchfield, IL

4:36 PM CST on November 18, 2017 (GMT -0600)
Litchfield

Weather History for K3LF - December, 2012

Change the Weather History Date:

Monday, December 10, 2012

  Actual Average (KALN) Record (KALN)
Temperature  
Mean Temperature 32 °F -  
Max Temperature 38 °F 42 °F 64 °F (1996)
Min Temperature 27 °F 28 °F 8 °F (2005)
Degree Days  
Heating Degree Days 32    
Moisture  
Dew Point 24 °F    
Average Humidity 80    
Maximum Humidity 85    
Minimum Humidity 67    
Precipitation  
Precipitation 0.18 in - - ()
Sea Level Pressure  
Sea Level Pressure 29.94 in    
Wind  
Wind Speed 14 mph (WNW)    
Max Wind Speed 20 mph    
Max Gust Speed 26 mph    
Visibility 10 miles    
Events      
Averages and records for this station are not official NWS values.
T = Trace of Precipitation, MM = Missing Value Source: NWS Daily Summary

Daily Weather History Graph

Daily Weather History Graph

Search for Another Location

Airport or City:

Trip Planner

Search our weather history database for the weather conditions in past years. The results will help you decide how hot, cold, wet, or windy it might be!

Date:

Astronomy

Dec. 10, 2012 Rise Set
Actual Time 7:07 AM CST 4:35 PM CST
Civil Twilight 6:37 AM CST 5:05 PM CST
Nautical Twilight 6:04 AM CST 5:39 PM CST
Astronomical Twilight 5:31 AM CST 6:11 PM CST
Moon 3:51 AM CST (12/10) 2:24 PM CST (12/10)
Length of Visible Light 10h 28m
Length of Day
9h 28m
Waning Crescent, 10% of the Moon is Illuminated
Dec 10
Waning Crescent
Dec 13
New
Dec 19
First Quarter
Dec 28
Full
Jan 4
Last Quarter

Hourly Weather History & Observations

Time (CST) Temp. Windchill Dew Point Humidity Pressure Visibility Wind Dir Wind Speed Gust Speed Precip Events Conditions
12:15 AM 38.3 °F 30.9 °F 33.3 °F 82% 29.85 in 10.0 mi WNW 11.5 mph - 0.02 in   Overcast
12:35 AM 37.0 °F 26.7 °F 31.6 °F 81% 29.86 in 10.0 mi WNW 19.6 mph 25.3 mph 0.03 in   Mostly Cloudy
12:55 AM 35.8 °F 25.4 °F 30.6 °F 81% 29.86 in 10.0 mi WNW 18.4 mph 24.2 mph 0.04 in   Mostly Cloudy
1:15 AM 34.5 °F 24.5 °F 30.2 °F 84% 29.87 in 10.0 mi WNW 16.1 mph 21.9 mph 0.01 in   Mostly Cloudy
1:55 AM 32.4 °F 21.7 °F 28.4 °F 85% 29.88 in 10.0 mi WNW 16.1 mph 20.7 mph 0.05 in   Mostly Cloudy
2:15 AM 32.0 °F 22.5 °F 28.0 °F 85% 29.88 in 10.0 mi West 12.7 mph - 0.01 in   Overcast
2:35 AM 32.0 °F 20.5 °F 27.5 °F 83% 29.88 in 10.0 mi WNW 18.4 mph - 0.03 in   Overcast
2:55 AM 31.8 °F 21.4 °F 27.1 °F 83% 29.87 in 10.0 mi NW 15.0 mph 21.9 mph 0.04 in   Overcast
3:15 AM 31.1 °F 19.7 °F 27.0 °F 85% 29.86 in 10.0 mi WNW 17.3 mph 26.5 mph 0.01 in   Overcast
3:35 AM 30.7 °F 19.2 °F 26.8 °F 85% 29.86 in 10.0 mi WNW 17.3 mph 24.2 mph 0.02 in   Overcast
3:55 AM 30.0 °F 17.9 °F 25.7 °F 84% 29.85 in 10.0 mi WNW 18.4 mph 23.0 mph 0.03 in   Overcast
4:15 AM 29.1 °F 18.4 °F 24.6 °F 83% 29.86 in 10.0 mi WNW 13.8 mph 24.2 mph 0.01 in   Overcast
4:35 AM 28.9 °F 16.9 °F 25.0 °F 85% 29.86 in 10.0 mi WNW 17.3 mph - 0.02 in   Overcast
4:55 AM 28.8 °F 17.5 °F 24.6 °F 84% 29.86 in 10.0 mi WNW 15.0 mph 19.6 mph 0.02 in   Overcast
5:15 AM 28.8 °F 16.6 °F 24.8 °F 85% 29.86 in 10.0 mi WNW 17.3 mph - N/A   Overcast
5:35 AM 28.8 °F 17.9 °F 24.4 °F 84% 29.86 in 10.0 mi WNW 13.8 mph - N/A   Overcast
5:55 AM 28.4 °F 18.0 °F 24.1 °F 84% 29.86 in 10.0 mi WNW 12.7 mph 21.9 mph N/A   Overcast
6:15 AM 28.2 °F 15.9 °F 23.4 °F 82% 29.87 in 10.0 mi NW 17.3 mph 23.0 mph N/A   Overcast
6:35 AM 28.0 °F 17.5 °F 23.4 °F 83% 29.90 in 10.0 mi WNW 12.7 mph - N/A   Overcast
6:55 AM 28.2 °F 16.3 °F 23.5 °F 83% 29.90 in 10.0 mi WNW 16.1 mph 20.7 mph N/A   Overcast
7:15 AM 28.2 °F 16.8 °F 23.9 °F 84% 29.91 in 10.0 mi West 15.0 mph - N/A   Overcast
7:35 AM 28.0 °F 16.1 °F 23.5 °F 83% 29.92 in 10.0 mi WNW 16.1 mph - N/A   Overcast
7:55 AM 28.2 °F 16.8 °F 23.9 °F 84% 29.93 in 10.0 mi WNW 15.0 mph - N/A   Overcast
8:15 AM 27.5 °F 16.8 °F 23.4 °F 84% 29.92 in 10.0 mi WNW 12.7 mph 19.6 mph N/A   Overcast
8:35 AM 27.9 °F 17.3 °F 23.5 °F 84% 29.92 in 10.0 mi WNW 12.7 mph - N/A   Overcast
8:55 AM 27.9 °F 15.1 °F 23.7 °F 84% 29.93 in 10.0 mi WNW 18.4 mph - N/A   Overcast
9:35 AM 27.9 °F 15.9 °F 23.4 °F 83% 29.94 in 10.0 mi WNW 16.1 mph 20.7 mph N/A   Overcast
9:55 AM 27.9 °F 16.3 °F 23.2 °F 83% 29.95 in 10.0 mi WNW 15.0 mph - N/A   Overcast
10:15 AM 28.0 °F 16.1 °F 23.4 °F 83% 29.95 in 10.0 mi WNW 16.1 mph - N/A   Overcast
10:35 AM 27.7 °F 16.6 °F 23.2 °F 83% 29.95 in 10.0 mi West 13.8 mph 19.6 mph N/A   Overcast
10:55 AM 27.9 °F 15.9 °F 23.5 °F 84% 29.95 in 10.0 mi WNW 16.1 mph - N/A   Overcast
11:15 AM 28.0 °F 16.5 °F 23.7 °F 84% 29.93 in 10.0 mi WNW 15.0 mph - N/A   Overcast
11:55 AM 28.4 °F 16.6 °F 24.3 °F 84% 29.92 in 10.0 mi WNW 16.1 mph 19.6 mph N/A   Overcast
12:15 PM 28.8 °F 16.6 °F 24.6 °F 84% 29.91 in 10.0 mi WNW 17.3 mph - N/A   Overcast
12:35 PM 29.1 °F 17.9 °F 24.4 °F 83% 29.91 in 10.0 mi West 15.0 mph 19.6 mph N/A   Overcast
12:55 PM 28.9 °F 17.3 °F 24.1 °F 82% 29.91 in 10.0 mi West 16.1 mph 19.6 mph N/A   Overcast
1:15 PM 29.1 °F 17.5 °F 24.3 °F 82% 29.90 in 10.0 mi WNW 16.1 mph - N/A   Overcast
1:35 PM 29.3 °F 18.6 °F 24.4 °F 82% 29.90 in 10.0 mi West 13.8 mph - N/A   Overcast
1:55 PM 29.3 °F 19.1 °F 24.3 °F 81% 29.91 in 10.0 mi West 12.7 mph - N/A   Overcast
2:15 PM 29.3 °F 18.6 °F 24.3 °F 81% 29.90 in 10.0 mi West 13.8 mph - N/A   Overcast
2:35 PM 29.8 °F 18.9 °F 24.8 °F 81% 29.92 in 10.0 mi West 15.0 mph - N/A   Overcast
2:55 PM 30.0 °F 20.0 °F 24.8 °F 81% 29.93 in 10.0 mi West 12.7 mph - N/A   Overcast
3:15 PM 29.8 °F 18.9 °F 24.6 °F 81% 29.94 in 10.0 mi West 15.0 mph 21.9 mph N/A   Overcast
3:35 PM 29.8 °F 19.3 °F 24.4 °F 80% 29.94 in 10.0 mi WNW 13.8 mph - N/A   Overcast
3:55 PM 30.2 °F 20.2 °F 24.8 °F 80% 29.94 in 10.0 mi WNW 12.7 mph - N/A   Overcast
4:15 PM 30.2 °F 20.2 °F 24.6 °F 80% 29.95 in 10.0 mi West 12.7 mph - N/A   Overcast
4:35 PM 30.2 °F 19.8 °F 25.0 °F 81% 29.96 in 10.0 mi West 13.8 mph - N/A   Overcast
4:55 PM 30.6 °F 21.2 °F 24.3 °F 77% 29.96 in 10.0 mi WNW 11.5 mph - N/A   Overcast
5:15 PM 30.7 °F 22.0 °F 23.7 °F 75% 29.97 in 10.0 mi NW 10.4 mph - N/A   Overcast
5:35 PM 30.7 °F 20.9 °F 23.7 °F 75% 29.98 in 10.0 mi NW 12.7 mph 16.1 mph N/A   Overcast
5:55 PM 30.7 °F 22.0 °F 23.9 °F 76% 29.98 in 10.0 mi WNW 10.4 mph - N/A   Overcast
6:15 PM 30.7 °F 20.9 °F 23.4 °F 74% 29.99 in 10.0 mi NW 12.7 mph - N/A   Overcast
6:35 PM 30.7 °F 21.4 °F 23.2 °F 74% 30.01 in 10.0 mi NW 11.5 mph - N/A   Overcast
6:55 PM 30.7 °F 20.4 °F 22.8 °F 72% 30.01 in 10.0 mi WNW 13.8 mph - N/A   Overcast
7:15 PM 30.7 °F 23.3 °F 23.2 °F 74% 30.02 in 10.0 mi NW 8.1 mph 16.1 mph N/A   Overcast
7:35 PM 30.7 °F 22.6 °F 23.7 °F 75% 30.02 in 10.0 mi WNW 9.2 mph - N/A   Overcast
7:55 PM 30.9 °F 22.8 °F 23.5 °F 74% 30.02 in 10.0 mi NW 9.2 mph - N/A   Overcast
8:15 PM 30.9 °F 22.8 °F 24.1 °F 76% 30.02 in 10.0 mi NW 9.2 mph - N/A   Overcast
8:35 PM 30.7 °F 20.9 °F 23.2 °F 74% 30.02 in 10.0 mi NNW 12.7 mph - N/A   Overcast
8:55 PM 30.7 °F 22.0 °F 22.1 °F 70% 30.02 in 10.0 mi NNW 10.4 mph - N/A   Overcast
9:15 PM 30.7 °F 22.6 °F 22.6 °F 72% 30.03 in 10.0 mi NW 9.2 mph - N/A   Overcast
9:35 PM 30.6 °F 22.4 °F 21.9 °F 70% 30.02 in 10.0 mi NW 9.2 mph - N/A   Overcast
9:55 PM 30.7 °F 23.3 °F 22.3 °F 71% 30.03 in 10.0 mi NW 8.1 mph - N/A   Overcast
10:15 PM 30.7 °F 26.0 °F 22.3 °F 71% 30.03 in 10.0 mi NW 4.6 mph - N/A   Overcast
10:35 PM 30.7 °F 24.9 °F 21.7 °F 69% 30.03 in 10.0 mi NW 5.8 mph - N/A   Overcast
10:55 PM 30.7 °F 22.6 °F 21.0 °F 67% 30.03 in 10.0 mi NW 9.2 mph - N/A   Overcast
11:15 PM 30.4 °F 25.6 °F 21.7 °F 70% 30.04 in 10.0 mi NW 4.6 mph - N/A   Overcast
11:55 PM 29.3 °F - 23.4 °F 78% 30.04 in 10.0 mi Calm Calm - N/A   Mostly Cloudy